Regional Weather Roundup
Issued by NWS

Home | Current Version | Previous Version | Graphics & Text | Print | Product List | Glossary On
Versions: 1 2 3 4 5 6 7 8 9 10 11 12 13 14 15 16 17 18 19 20 21 22 23 24 25 26 27 28 29 30 31 32 33 34 35 36 37 38 39 40 41 42 43 44 45 46 47 48 49 50
408
ASUS43 KFSD 190602
RWRSD

WEATHER ROUNDUP FOR SOUTH DAKOTA
NATIONAL WEATHER SERVICE SIOUX FALLS SD
1200 AM CST THU JAN 19 2017

NOTE: "FAIR" INDICATES FEW OR NO CLOUDS BELOW 12,000 FEET WITH NO
SIGNIFICANT WEATHER AND/OR OBSTRUCTIONS TO VISIBILITY.


SDZ001>005-009-010-012>017-190700-
NORTHWEST AND NORTH CENTRAL SOUTH DAKOTA

CITY           SKY/WX    TMP DP  RH WIND       PRES   REMARKS
BUFFALO          N/A     31  20  63 W15       29.51R WCI  20
FAITH            N/A     24  21  88 SW5       29.58R WCI  18
MOBRIDGE       CLOUDY    20  15  81 CALM      29.58S
$$

SDZ012>016-024>037-041>051-057-063-072>074-190700-
SOUTHWEST AND SOUTH CENTRAL SOUTH DAKOTA

CITY           SKY/WX    TMP DP  RH WIND       PRES   REMARKS
RAPID CTY ARPT CLOUDY    30  21  69 N9        29.57R WCI  22
PIERRE         CLOUDY    19  17  92 E5        29.59F WCI  12
CUSTER         CLOUDY    38  15  39 W8        29.62S
ELLSWORTH AFB  CLOUDY    36  23  60 N21       29.57R
PHILIP         CLOUDY    15  13  91 W5        29.60R WCI   8
PINE RIDGE     CLOUDY    32  24  72 W8        29.60S WCI  25
SPEARFISH      FAIR      34  23  64 W6        29.61S WCI  29
WINNER         FAIR      38  28  67 S8        29.64F
$$

SDZ004>011-016>023-039-040-190700-
NORTHEAST SOUTH DAKOTA

CITY           SKY/WX    TMP DP  RH WIND       PRES   REMARKS
ABERDEEN       FOG       13  10  88 CALM      29.65F VSB 3/4
WATERTOWN      FOG       27  27 100 S9        29.68F VSB 1/2 WCI  18
BROOKINGS      CLEAR     34  33  96 S10       29.73F WCI  26
SISSETON         N/A     27  26  96 S9        29.67F WCI  18
$$

SDZ017-020-022-023-036>040-048>070-190700-
SOUTHEAST SOUTH DAKOTA

CITY           SKY/WX    TMP DP  RH WIND       PRES   REMARKS
SIOUX FALLS    CLEAR     38  37  97 SW6       29.77S
HURON          CLOUDY    32  31  96 S14       29.67F WCI  22
CHAMBERLAIN    CLOUDY    34  28  77 SE7       29.65F WCI  28
MITCHELL       CLEAR     33  32  96 SE12      29.71F WCI  24
YANKTON        CLEAR     37  36  93 CALM      29.76F
$$

ABBREVIATIONS USED IN REMARKS
   TC - TEMPERATURE IN CELSIUS
  WCI - WIND CHILL INDEX
   HX - HEAT INDEX
  VSB - VISIBILITY





USA.gov is the U.S. government's official web portal to all federal, state and local government web resources and services.